Weather History for McCook, NE

Change the Weather History Date:

Friday, December 13, 2013

  Actual Average Record
Temperature  
Mean Temperature 28 °F 28 °F  
Max Temperature 43 °F 41 °F 72 °F (1988)
Min Temperature 13 °F 15 °F -15 °F (1961)
Degree Days  
Heating Degree Days 38    
Moisture  
Dew Point 19 °F    
Average Humidity 78    
Maximum Humidity 92    
Minimum Humidity 51    
Precipitation  
Precipitation 0.00 in 0.02 in 0.18 in (1972)
Month to date precipitation T 0.28  
Year to date precipitation 12.61 22.17  
Sea Level Pressure  
Sea Level Pressure 29.98 in    
Wind  
Wind Speed 7 mph (NW)    
Max Wind Speed 12 mph    
Max Gust Speed -    
Visibility 10 miles    
Events      
T = Trace of Precipitation, MM = Missing Value Source: NWS Daily Summary

Daily Weather History Graph

Daily Weather History Graph

Search for Another Location

Airport:

Trip Planner

Search our weather history database for the weather conditions in past years. The results will help you decide how hot, cold, wet, or windy it might be!

Date:

Astronomy

Dec. 13, 2013 Rise Set
Actual Time 7:56 AM CST 5:16 PM CST
Civil Twilight 7:25 AM CST 5:47 PM CST
Nautical Twilight 6:51 AM CST 6:21 PM CST
Astronomical Twilight 6:18 AM CST 6:54 PM CST
Moon 3:01 PM CST (12/13) 4:20 AM CST (12/13)
Length of Visible Light 10h 21m
Length of Day
9h 20m
Waxing Gibbous, 88% of the Moon is Illuminated
Dec 13
Waxing Gibbous
Dec 17
Full
Dec 25
Last Quarter
Jan 1
New
Jan 7
First Quarter

Hourly Weather History & Observations

Time (CST) Temp. Windchill Dew Point Humidity Pressure Visibility Wind Dir Wind Speed Gust Speed Precip Events Conditions
12:53 AM 19.0 °F 11.1 °F 17.1 °F 92% 30.02 in 9.0 mi WNW 5.8 mph - N/A   Clear
1:53 AM 15.1 °F 7.7 °F 12.0 °F 88% 29.99 in 9.0 mi WSW 4.6 mph - N/A   Clear
2:53 AM 16.0 °F 4.4 °F 12.9 °F 88% 29.97 in 10.0 mi WNW 9.2 mph - N/A   Clear
3:53 AM 12.9 °F 5.2 °F 10.9 °F 92% 29.97 in 10.0 mi SSW 4.6 mph - N/A   Clear
4:53 AM 14.0 °F 3.9 °F 10.9 °F 88% 29.95 in 10.0 mi West 6.9 mph - N/A   Clear
5:53 AM 15.1 °F 2.5 °F 12.0 °F 88% 29.94 in 10.0 mi WNW 10.4 mph - N/A   Clear
6:53 AM 15.1 °F 5.2 °F 12.0 °F 88% 29.94 in 10.0 mi West 6.9 mph - N/A   Clear
7:53 AM 15.1 °F 7.7 °F 12.0 °F 88% 29.94 in 10.0 mi WSW 4.6 mph - N/A   Clear
8:53 AM 16.0 °F 4.4 °F 12.9 °F 88% 29.95 in 10.0 mi WNW 9.2 mph - N/A   Clear
9:53 AM 21.9 °F 14.5 °F 18.0 °F 85% 29.94 in 10.0 mi WNW 5.8 mph - N/A   Clear
10:53 AM 30.9 °F 25.2 °F 24.1 °F 76% 29.94 in 10.0 mi WNW 5.8 mph - N/A   Clear
11:53 AM 30.9 °F 26.2 °F 24.1 °F 76% 29.91 in 10.0 mi NW 4.6 mph - N/A   Clear
12:53 PM 34.0 °F 29.8 °F 26.1 °F 73% 29.88 in 10.0 mi WNW 4.6 mph - N/A   Clear
1:53 PM 37.0 °F 34.5 °F 26.1 °F 65% 29.88 in 10.0 mi NW 3.5 mph - N/A   Clear
2:53 PM 41.0 °F 37.1 °F 25.0 °F 53% 29.88 in 10.0 mi NNE 5.8 mph - N/A   Clear
3:53 PM 42.1 °F 37.1 °F 25.0 °F 51% 29.90 in 10.0 mi NNE 8.1 mph - N/A   Clear
4:53 PM 36.0 °F 31.1 °F 25.0 °F 64% 29.94 in 10.0 mi NNE 5.8 mph - N/A   Clear
5:53 PM 33.1 °F 26.9 °F 24.1 °F 70% 29.97 in 10.0 mi NNW 6.9 mph - N/A   Clear
6:53 PM 30.0 °F 21.7 °F 23.0 °F 75% 30.02 in 10.0 mi North 9.2 mph - N/A   Clear
7:53 PM 30.0 °F 20.5 °F 21.9 °F 72% 30.07 in 10.0 mi North 11.5 mph - N/A   Clear
8:53 PM 25.0 °F 18.1 °F 19.0 °F 78% 30.12 in 10.0 mi North 5.8 mph - N/A   Clear
9:53 PM 26.1 °F 17.6 °F 19.9 °F 78% 30.14 in 10.0 mi North 8.1 mph - N/A   Overcast
10:53 PM 25.0 °F 14.2 °F 18.0 °F 75% 30.16 in 10.0 mi North 11.5 mph - N/A   Mostly Cloudy
11:53 PM 21.9 °F 12.5 °F 17.1 °F 82% 30.19 in 9.0 mi North 8.1 mph - N/A   Clear